Kosmos-1884

operational
NORAD ID: 18356 Int'l Des: 1987-079 Owner: UNKS Country: SU Constellation: GLONASS
MEOCIRCULAR

About Kosmos-1884

Description loading...

Live Position

Loading 3D Globe...

Upcoming Passes

Altitude History

Altitude vs Time

uPlot chart will show altitude changes over time

Two-Line Element Set

1 18356U 87079B 26061.08090477 -.00000056 00000-0 00000+0 0 9995
2 18356 65.6777 322.6884 0019739 206.7845 332.7114 2.13102918299386
Epoch: Mar 2, 2026 • Age: 40 hours

Current Status

Altitude 19166.0 km
Velocity 3.95 km/s
Sub-Earth Point -26.34°S, 98.63°W
Launch Date Sep 16, 1987
Age 38.4 years
Type other

Technical Details

Classification Payload
Mass 1300.00 kg
Dry Mass 1200.00 kg
Total Mass 1300.00 kg
Length 4.00 m
Diameter 1.50 m
Span 7.80 m
Shape Cyl + Ant + 2 Pan
Manufacturer OAZ
Bus Type Uragan
Phase Status In Orbit
Owner/State UNKS/SU

Large Constellations

Loading constellations...